| time (UTC) | temp C | wind direction | speed KPH | gust KPH | rain 1hr cm | rain 24hr cm | rain mn cm | humidity % | barometer mb |
| 20260506150505 | 20 | 0.0 | 0.0 | 0.00 | 0.00 | 20.98 | 49 | 1014.2 | |
| 20260506145505 | 19 | 0.0 | 0.0 | 0.00 | 0.00 | 20.98 | 51 | 1014.2 | |
| 20260506144505 | 20 | 0.0 | 0.0 | 0.00 | 0.00 | 20.98 | 51 | 1014.1 | |
| 20260506143505 | 19 | 0.0 | 0.0 | 0.00 | 0.00 | 20.98 | 54 | 1014.0 | |
| 20260506142505 | 18 | 0.0 | 0.0 | 0.00 | 0.00 | 20.98 | 59 | 1014.0 | |
| 20260506141505 | 18 | 0.0 | 0.0 | 0.00 | 0.00 | 20.98 | 60 | 1014.3 | |
| 20260506140505 | 17 | 0.0 | 0.0 | 0.00 | 0.00 | 20.98 | 64 | 1014.7 | |
| 20260506135505 | 17 | 0.0 | 0.0 | 0.00 | 0.00 | 20.98 | 63 | 1014.7 | |
| 20260506134505 | 18 | 0.0 | 0.0 | 0.00 | 0.00 | 20.98 | 60 | 1014.6 | |
| 20260506133505 | 18 | 0.0 | 0.0 | 0.00 | 0.00 | 20.98 | 59 | 1014.6 | |
| 20260506132505 | 18 | 0.0 | 0.0 | 0.00 | 0.00 | 20.98 | 60 | 1014.7 | |
| 20260506131505 | 17 | 0.0 | 0.0 | 0.00 | 0.00 | 20.98 | 62 | 1015.0 | |
| 20260506130505 | 17 | 0.0 | 0.0 | 0.00 | 0.00 | 20.98 | 63 | 1015.0 | |
| 20260506125505 | 17 | 0.0 | 0.0 | 0.00 | 0.00 | 20.98 | 64 | 1015.1 | |
| 20260506124505 | 16 | 0.0 | 0.0 | 0.00 | 0.00 | 20.98 | 65 | 1015.3 | |
| 20260506123505 | 16 | 0.0 | 0.0 | 0.00 | 0.00 | 20.98 | 66 | 1015.5 | |
| 20260506122505 | 16 | 0.0 | 0.0 | 0.00 | 0.00 | 20.98 | 66 | 1015.5 | |
| 20260506121505 | 16 | 0.0 | 0.0 | 0.00 | 0.00 | 20.98 | 65 | 1015.3 | |
| 20260506120505 | 16 | 0.0 | 0.0 | 0.00 | 0.00 | 20.98 | 67 | 1015.5 | |
| 20260506115505 | 15 | 0.0 | 0.0 | 0.00 | 0.00 | 20.98 | 68 | 1015.7 | |
| 20260506114505 | 16 | 0.0 | 0.0 | 0.00 | 0.00 | 20.98 | 67 | 1015.5 | |
| 20260506113505 | 15 | 0.0 | 0.0 | 0.00 | 0.00 | 20.98 | 68 | 1015.4 | |
| 20260506112505 | 16 | 0.0 | 0.0 | 0.00 | 0.00 | 20.98 | 67 | 1015.1 | |
| 20260506111505 | 16 | 0.0 | 0.0 | 0.00 | 0.00 | 20.98 | 67 | 1014.8 | |
| 20260506110505 | 16 | 0.0 | 0.0 | 0.00 | 0.00 | 20.98 | 67 | 1014.8 | |
| 20260506105505 | 15 | 0.0 | 0.0 | 0.00 | 0.00 | 20.98 | 69 | 1014.8 | |
| 20260506104505 | 15 | 0.0 | 0.0 | 0.00 | 0.00 | 20.98 | 71 | 1014.8 | |
| 20260506103505 | 15 | 0.0 | 0.0 | 0.00 | 0.00 | 20.98 | 70 | 1014.6 | |
| 20260506102505 | 16 | 0.0 | 0.0 | 0.00 | 0.00 | 20.98 | 67 | 1014.0 | |
| 20260506101505 | 16 | 0.0 | 0.0 | 0.00 | 0.00 | 20.98 | 67 | 1014.1 | |
| 20260506100512 | 15 | 0.0 | 0.0 | 0.00 | 0.00 | 20.98 | 70 | 1014.3 | |
| 20260506095505 | 16 | 0.0 | 0.0 | 0.00 | 0.00 | 20.98 | 65 | 1013.9 | |
| 20260506094505 | 16 | 0.0 | 0.0 | 0.00 | 0.00 | 20.98 | 66 | 1013.7 | |
| 20260506093505 | 16 | 0.0 | 0.0 | 0.00 | 0.00 | 20.98 | 68 | 1013.7 | |
| 20260506092505 | 16 | 0.0 | 0.0 | 0.00 | 0.00 | 20.98 | 67 | 1013.5 | |
| 20260506091505 | 16 | 0.0 | 0.0 | 0.00 | 0.00 | 20.98 | 67 | 1013.3 | |
| 20260506090505 | 16 | 0.0 | 0.0 | 0.00 | 0.00 | 20.98 | 67 | 1013.1 | |
| 20260506085505 | 16 | 0.0 | 0.0 | 0.00 | 0.00 | 20.98 | 67 | 1013.1 | |
| 20260506084505 | 16 | 0.0 | 0.0 | 0.00 | 0.00 | 20.98 | 67 | 1013.2 | |
| 20260506083505 | 16 | 0.0 | 0.0 | 0.00 | 0.00 | 20.98 | 68 | 1013.3 | |
| 20260506082505 | 15 | 0.0 | 0.0 | 0.00 | 0.00 | 20.98 | 71 | 1013.5 | |
| 20260506081505 | 15 | 0.0 | 0.0 | 0.00 | 0.00 | 20.98 | 71 | 1013.5 | |
| 20260506080505 | 15 | 0.0 | 0.0 | 0.00 | 0.00 | 20.98 | 69 | 1013.3 | |
| 20260506073505 | 16 | 0.0 | 0.0 | 0.00 | 0.00 | 20.98 | 66 | 1012.8 | |
| 20260506072505 | 16 | 0.0 | 0.0 | 0.00 | 0.00 | 20.98 | 66 | 1012.6 | |
| 20260506071505 | 16 | 0.0 | 0.0 | 0.00 | 0.00 | 20.98 | 65 | 1012.5 | |
| 20260506070505 | 17 | 0.0 | 0.0 | 0.00 | 0.00 | 20.98 | 63 | 1012.6 | |
| 20260506062505 | 17 | 0.0 | 0.0 | 0.00 | 0.00 | 20.98 | 60 | 1012.7 | |
| 20260506061505 | 17 | 0.0 | 0.0 | 0.00 | 0.00 | 20.98 | 60 | 1012.7 | |
| 20260506060505 | 17 | 0.0 | 0.0 | 0.00 | 0.00 | 20.98 | 61 | 1012.9 | |
| 20260506050505 | 17 | 0.0 | 0.0 | 0.00 | 0.00 | 20.98 | 61 | 1013.3 | |
| 20260506044505 | 17 | 0.0 | 0.0 | 0.00 | 0.00 | 20.98 | 61 | 1013.3 | |
| 20260506043505 | 17 | 0.0 | 0.0 | 0.00 | 0.00 | 20.98 | 61 | 1013.5 | |
| 20260506042505 | 17 | 0.0 | 0.0 | 0.00 | 0.00 | 20.98 | 62 | 1013.6 | |
| 20260506041505 | 17 | 0.0 | 0.0 | 0.00 | 0.00 | 20.98 | 61 | 1013.6 | |
| 20260506040505 | 17 | 0.0 | 0.0 | 0.00 | 0.00 | 20.98 | 60 | 1013.6 | |
| 20260506035505 | 17 | 0.0 | 0.0 | 0.00 | 0.00 | 20.98 | 61 | 1013.7 | |
| 20260506034505 | 17 | 0.0 | 0.0 | 0.00 | 0.00 | 20.98 | 61 | 1013.8 | |
| 20260506033505 | 17 | 0.0 | 0.0 | 0.00 | 0.00 | 20.98 | 62 | 1013.8 | |
| 20260506032505 | 17 | 0.0 | 0.0 | 0.00 | 0.00 | 20.98 | 63 | 1013.8 | |
| 20260506031505 | 16 | 0.0 | 0.0 | 0.00 | 0.00 | 20.98 | 66 | 1013.9 | |
| 20260506030505 | 16 | 0.0 | 0.0 | 0.00 | 0.00 | 20.98 | 65 | 1013.9 | |
| 20260506025505 | 17 | 0.0 | 0.0 | 0.00 | 0.00 | 20.98 | 63 | 1013.7 | |
| 20260506024505 | 17 | 0.0 | 0.0 | 0.00 | 0.00 | 20.98 | 60 | 1013.5 | |
| 20260506023505 | 18 | 0.0 | 0.0 | 0.00 | 0.00 | 20.98 | 60 | 1013.6 | |
| 20260506022505 | 17 | 0.0 | 0.0 | 0.00 | 0.00 | 20.98 | 60 | 1013.6 | |
| 20260506021505 | 17 | 0.0 | 0.0 | 0.00 | 0.00 | 20.98 | 61 | 1013.7 | |
| 20260506020505 | 17 | 0.0 | 0.0 | 0.00 | 0.00 | 20.98 | 61 | 1013.6 | |
| 20260506015505 | 18 | 0.0 | 0.0 | 0.00 | 0.00 | 20.98 | 60 | 1013.6 | |
| 20260506014505 | 18 | 0.0 | 0.0 | 0.00 | 0.00 | 20.98 | 60 | 1013.5 | |
| 20260506013505 | 17 | 0.0 | 0.0 | 0.00 | 0.00 | 20.98 | 62 | 1013.7 | |
| 20260506012505 | 17 | 0.0 | 0.0 | 0.00 | 0.00 | 20.98 | 63 | 1013.9 | |
| 20260506011505 | 17 | 0.0 | 0.0 | 0.00 | 0.00 | 20.98 | 64 | 1013.9 | |
| 20260506010505 | 17 | 0.0 | 0.0 | 0.00 | 0.00 | 20.98 | 64 | 1014.0 | |
| 20260506005505 | 16 | 0.0 | 0.0 | 0.00 | 0.00 | 20.98 | 66 | 1014.2 | |
| 20260506004505 | 17 | 0.0 | 0.0 | 0.00 | 0.00 | 20.98 | 64 | 1014.0 | |
| 20260506003505 | 17 | 0.0 | 0.0 | 0.00 | 0.00 | 20.98 | 62 | 1013.7 | |
| 20260506002505 | 17 | 0.0 | 0.0 | 0.00 | 0.00 | 20.98 | 62 | 1013.5 | |
| 20260506001505 | 18 | 0.0 | 0.0 | 0.00 | 0.00 | 20.98 | 62 | 1013.1 | |
| 20260506000505 | 18 | 0.0 | 0.0 | 0.00 | 0.00 | 20.98 | 61 | 1012.8 | |
| 20260505235505 | 18 | 0.0 | 0.0 | 0.00 | 0.00 | 20.98 | 60 | 1012.6 | |
| 20260505234505 | 18 | 0.0 | 0.0 | 0.00 | 0.00 | 20.98 | 61 | 1012.7 | |
| 20260505233505 | 18 | 0.0 | 0.0 | 0.00 | 0.00 | 20.98 | 61 | 1012.6 | |
| 20260505232505 | 18 | 0.0 | 0.0 | 0.00 | 0.00 | 20.98 | 61 | 1012.5 | |
| 20260505231505 | 18 | 0.0 | 0.0 | 0.00 | 0.00 | 20.98 | 60 | 1012.5 | |
| 20260505230505 | 18 | 0.0 | 0.0 | 0.00 | 0.00 | 20.98 | 59 | 1012.4 | |
| 20260505225505 | 18 | 0.0 | 0.0 | 0.00 | 0.00 | 20.98 | 59 | 1012.1 | |
| 20260505224505 | 19 | 0.0 | 0.0 | 0.00 | 0.00 | 20.98 | 59 | 1011.9 | |
| 20260505223505 | 19 | 0.0 | 0.0 | 0.00 | 0.00 | 20.98 | 57 | 1011.7 | |
| 20260505222505 | 19 | 0.0 | 0.0 | 0.00 | 0.00 | 20.98 | 58 | 1011.6 | |
| 20260505221505 | 20 | 0.0 | 0.0 | 0.00 | 0.00 | 20.98 | 57 | 1011.5 | |
| 20260505220505 | 20 | 0.0 | 0.0 | 0.00 | 0.00 | 20.98 | 57 | 1011.2 | |
| 20260505215505 | 20 | 0.0 | 0.0 | 0.00 | 0.00 | 20.98 | 55 | 1011.1 | |
| 20260505214505 | 20 | 0.0 | 0.0 | 0.00 | 0.00 | 20.98 | 53 | 1010.8 | |
| 20260505213505 | 20 | 0.0 | 0.0 | 0.00 | 0.00 | 20.98 | 51 | 1010.5 | |
| 20260505212505 | 21 | 0.0 | 0.0 | 0.00 | 0.00 | 20.98 | 50 | 1010.1 | |
| 20260505211505 | 21 | 0.0 | 0.0 | 0.00 | 0.00 | 20.98 | 48 | 1010.1 | |
| 20260505210505 | 21 | 0.0 | 0.0 | 0.00 | 0.00 | 20.98 | 47 | 1010.1 | |
| 20260505205505 | 21 | 0.0 | 0.0 | 0.00 | 0.00 | 20.98 | 45 | 1010.1 | |
| 20260505204505 | 21 | 0.0 | 0.0 | 0.00 | 0.00 | 20.98 | 43 | 1010.1 | |
| 20260505203505 | 21 | 0.0 | 0.0 | 0.00 | 0.00 | 20.98 | 41 | 1010.0 | |
| 20260505202505 | 21 | 0.0 | 0.0 | 0.00 | 0.00 | 20.98 | 40 | 1009.9 | |
| 20260505201505 | 22 | 0.0 | 0.0 | 0.00 | 0.00 | 20.98 | 38 | 1009.7 | |
| 20260505200505 | 22 | 0.0 | 0.0 | 0.00 | 0.00 | 20.98 | 37 | 1009.6 | |
| 20260505195505 | 22 | 0.0 | 0.0 | 0.00 | 0.00 | 20.98 | 38 | 1009.7 | |
| 20260505194505 | 22 | 0.0 | 0.0 | 0.00 | 0.00 | 20.98 | 37 | 1009.7 | |
| 20260505193505 | 22 | 0.0 | 0.0 | 0.00 | 0.00 | 20.98 | 36 | 1009.5 | |
| 20260505192505 | 22 | 0.0 | 0.0 | 0.00 | 0.00 | 20.98 | 35 | 1009.5 | |
| 20260505191505 | 22 | 0.0 | 0.0 | 0.00 | 0.00 | 20.98 | 34 | 1009.4 | |
| 20260505190505 | 22 | 0.0 | 0.0 | 0.00 | 0.00 | 20.98 | 34 | 1009.3 | |
| 20260505185505 | 22 | 0.0 | 0.0 | 0.00 | 0.00 | 20.98 | 34 | 1009.2 | |
| 20260505184505 | 23 | 0.0 | 0.0 | 0.00 | 0.00 | 20.98 | 33 | 1009.2 | |
| 20260505183505 | 23 | 0.0 | 0.0 | 0.00 | 0.00 | 20.98 | 31 | 1009.0 | |
| 20260505182505 | 23 | 0.0 | 0.0 | 0.00 | 0.00 | 20.98 | 30 | 1009.0 | |
| 20260505181505 | 23 | 0.0 | 0.0 | 0.00 | 0.00 | 20.98 | 29 | 1008.8 | |
| 20260505180505 | 23 | 0.0 | 0.0 | 0.00 | 0.00 | 20.98 | 29 | 1008.7 | |
| 20260505175505 | 23 | 0.0 | 0.0 | 0.00 | 0.00 | 20.98 | 28 | 1008.8 | |
| 20260505174505 | 23 | 0.0 | 0.0 | 0.00 | 0.00 | 20.98 | 28 | 1008.7 | |
| 20260505173505 | 23 | 0.0 | 0.0 | 0.00 | 0.00 | 20.98 | 28 | 1008.6 | |
| 20260505172505 | 23 | 0.0 | 0.0 | 0.00 | 0.00 | 20.98 | 28 | 1008.6 | |
| 20260505171505 | 23 | 0.0 | 0.0 | 0.00 | 0.00 | 20.98 | 27 | 1008.7 | |
| 20260505170505 | 23 | 0.0 | 0.0 | 0.00 | 0.00 | 20.98 | 27 | 1008.7 | |
| 20260505165505 | 23 | 0.0 | 0.0 | 0.00 | 0.00 | 20.98 | 28 | 1008.6 | |
| 20260505164505 | 23 | 0.0 | 0.0 | 0.00 | 0.00 | 20.98 | 28 | 1008.8 | |
| 20260505163505 | 23 | 0.0 | 0.0 | 0.00 | 0.00 | 20.98 | 29 | 1009.1 | |
| 20260505162505 | 23 | 0.0 | 0.0 | 0.00 | 0.00 | 20.98 | 28 | 1009.0 | |
| 20260505161505 | 22 | 0.0 | 0.0 | 0.00 | 0.00 | 20.98 | 30 | 1009.1 | |
| 20260505160505 | 22 | 0.0 | 0.0 | 0.00 | 0.00 | 20.98 | 30 | 1009.5 | |
| 20260505152505 | 22 | 0.0 | 0.0 | 0.00 | 0.00 | 20.98 | 30 | 1009.8 | |
| 20260505151505 | 22 | 0.0 | 0.0 | 0.00 | 0.00 | 20.98 | 31 | 1010.2 |